• In Deutschland
  • Länderverzeichnis
  • Für 7 Tage
  • Wassertemperatur
  • Satellitenkarten
  • Wetterkarte
  • Widgets
  • user-avatar
    Anmelden

    Stündliche Wetter Herrenberg

    Heute, 17 Oktober, Dienstag

    Zeit Temperatur Niederschläge Wind Luftdruck Luftfeuchtigkeit
    00:00 +14°C° 0 mm 1 m/S 729 mmHg 72%
    01:00 +14°C° 0 mm 2 m/S 729 mmHg 69%
    02:00 +14°C° 0 mm 2 m/S 729 mmHg 68%
    03:00 +13°C° 0 mm 1 m/S 729 mmHg 68%
    04:00 +13°C° 0 mm 1 m/S 728 mmHg 67%
    05:00 +13°C° 0 mm 1 m/S 728 mmHg 67%
    06:00 +12°C° 0 mm 1 m/S 728 mmHg 66%
    07:00 +11°C° 0 mm 1 m/S 729 mmHg 61%
    08:00 +13°C° 0 mm 1 m/S 729 mmHg 58%
    09:00 +16°C° 0 mm 1 m/S 729 mmHg 54%
    10:00 +19°C° 0 mm 1 m/S 729 mmHg 50%
    11:00 +20°C° 0 mm 1 m/S 728 mmHg 47%
    12:00 +20°C° 0 mm 0 m/S 728 mmHg 44%
    13:00 +21°C° 0 mm 0 m/S 728 mmHg 41%
    14:00 +21°C° 0 mm 0 m/S 727 mmHg 45%
    15:00 +20°C° 0 mm 0 m/S 727 mmHg 49%
    16:00 +20°C° 0 mm 0 m/S 726 mmHg 54%
    17:00 +18°C° 0 mm 0 m/S 726 mmHg 58%
    18:00 +15°C° 0 mm 0 m/S 726 mmHg 63%
    19:00 +13°C° 0 mm 0 m/S 725 mmHg 67%
    20:00 +14°C° 0 mm 1 m/S 725 mmHg 68%
    21:00 +13°C° 0 mm 1 m/S 725 mmHg 69%
    22:00 +13°C° 0 mm 1 m/S 725 mmHg 70%
    23:00 +13°C° 0 mm 1 m/S 725 mmHg 70%

    Morgen, 18 Oktober, Mittwoch

    Zeit Temperatur Niederschläge Wind Luftdruck Luftfeuchtigkeit
    00:00 +12°C° 0 mm 1 m/S 725 mmHg 70%
    01:00 +12°C° 0 mm 1 m/S 725 mmHg 69%
    02:00 +12°C° 0 mm 1 m/S 724 mmHg 69%
    03:00 +12°C° 0 mm 1 m/S 724 mmHg 68%
    04:00 +12°C° 0 mm 1 m/S 724 mmHg 67%
    05:00 +11°C° 0 mm 1 m/S 724 mmHg 67%
    06:00 +11°C° 0 mm 1 m/S 723 mmHg 66%
    07:00 +11°C° 0 mm 1 m/S 723 mmHg 65%
    08:00 +13°C° 0 mm 1 m/S 723 mmHg 61%
    09:00 +15°C° 0 mm 1 m/S 724 mmHg 56%
    10:00 +19°C° 0 mm 1 m/S 724 mmHg 52%
    11:00 +20°C° 0 mm 1 m/S 723 mmHg 49%
    12:00 +21°C° 0 mm 1 m/S 723 mmHg 46%
    13:00 +22°C° 0 mm 1 m/S 723 mmHg 43%
    14:00 +22°C° 0 mm 1 m/S 723 mmHg 47%
    15:00 +21°C° 0 mm 1 m/S 723 mmHg 51%
    16:00 +21°C° 0 mm 1 m/S 722 mmHg 56%
    17:00 +19°C° 0 mm 1 m/S 722 mmHg 61%
    18:00 +15°C° 0 mm 1 m/S 722 mmHg 66%
    19:00 +13°C° 0 mm 1 m/S 722 mmHg 71%
    20:00 +13°C° 0 mm 1 m/S 722 mmHg 73%
    21:00 +13°C° 0 mm 1 m/S 722 mmHg 75%
    22:00 +12°C° 0 mm 1 m/S 722 mmHg 76%
    23:00 +12°C° 0 mm 1 m/S 722 mmHg 77%

    übermorgen, 19 Oktober, Donnerstag

    Zeit Temperatur Niederschläge Wind Luftdruck Luftfeuchtigkeit
    00:00 +11°C° 0 mm 1 m/S 722 mmHg 78%
    01:00 +11°C° 0 mm 1 m/S 722 mmHg 78%
    02:00 +11°C° 0 mm 1 m/S 722 mmHg 78%
    03:00 +11°C° 0 mm 1 m/S 722 mmHg 78%
    04:00 +11°C° 0 mm 1 m/S 722 mmHg 78%
    05:00 +10°C° 0 mm 1 m/S 721 mmHg 78%
    06:00 +10°C° 0 mm 1 m/S 721 mmHg 78%
    07:00 +10°C° 0 mm 1 m/S 721 mmHg 78%
    08:00 +12°C° 0 mm 1 m/S 722 mmHg 72%
    09:00 +14°C° 0 mm 1 m/S 722 mmHg 66%
    10:00 +18°C° 0 mm 1 m/S 722 mmHg 60%
    11:00 +19°C° 0 mm 1 m/S 722 mmHg 56%
    12:00 +20°C° 0 mm 1 m/S 722 mmHg 53%
    13:00 +21°C° 0 mm 1 m/S 722 mmHg 49%
    14:00 +21°C° 0 mm 1 m/S 722 mmHg 53%
    15:00 +20°C° 0 mm 1 m/S 722 mmHg 58%
    16:00 +18°C° 0 mm 0 m/S 721 mmHg 62%
    17:00 +18°C° 0 mm 1 m/S 722 mmHg 66%
    18:00 +15°C° 0 mm 1 m/S 722 mmHg 70%
    19:00 +14°C° 0 mm 1 m/S 722 mmHg 74%
    20:00 +13°C° 0 mm 1 m/S 722 mmHg 75%
    21:00 +13°C° 0 mm 1 m/S 722 mmHg 77%
    22:00 +12°C° 0 mm 1 m/S 722 mmHg 79%
    23:00 +12°C° 0 mm 1 m/S 722 mmHg 78%

    20 Oktober, Freitag

    Zeit Temperatur Niederschläge Wind Luftdruck Luftfeuchtigkeit
    00:00 +12°C° 0 mm 1 m/S 722 mmHg 78%
    01:00 +12°C° 0 mm 1 m/S 722 mmHg 77%
    02:00 +12°C° 0 mm 1 m/S 722 mmHg 76%
    03:00 +12°C° 0 mm 1 m/S 722 mmHg 74%
    04:00 +11°C° 0 mm 1 m/S 722 mmHg 72%
    05:00 +10°C° 0 mm 2 m/S 722 mmHg 72%
    06:00 +10°C° 0 mm 2 m/S 723 mmHg 71%
    07:00 +10°C° 0 mm 2 m/S 723 mmHg 70%
    08:00 +13°C° 0 mm 2 m/S 723 mmHg 66%
    09:00 +15°C° 0 mm 2 m/S 724 mmHg 62%
    10:00 +17°C° 0 mm 2 m/S 724 mmHg 57%
    11:00 +18°C° 0 mm 2 m/S 724 mmHg 55%
    12:00 +19°C° 0 mm 3 m/S 724 mmHg 52%
    13:00 +21°C° 0 mm 3 m/S 724 mmHg 50%
    14:00 +20°C° 0 mm 3 m/S 724 mmHg 54%
    15:00 +20°C° 0 mm 2 m/S 724 mmHg 57%
    16:00 +20°C° 0 mm 2 m/S 723 mmHg 61%
    17:00 +19°C° 0 mm 1 m/S 724 mmHg 66%
    18:00 +16°C° 0 mm 1 m/S 724 mmHg 70%
    19:00 +14°C° 0 mm 1 m/S 724 mmHg 75%
    20:00 +14°C° 0 mm 1 m/S 724 mmHg 75%
    21:00 +13°C° 0 mm 2 m/S 724 mmHg 75%
    22:00 +13°C° 0 mm 2 m/S 724 mmHg 76%
    23:00 +13°C° 0 mm 2 m/S 724 mmHg 75%

    21 Oktober, Samstag

    Zeit Temperatur Niederschläge Wind Luftdruck Luftfeuchtigkeit
    00:00 +13°C° 0 mm 2 m/S 724 mmHg 75%
    01:00 +12°C° 0 mm 2 m/S 723 mmHg 74%
    02:00 +12°C° 0 mm 2 m/S 723 mmHg 74%
    03:00 +12°C° 0 mm 2 m/S 723 mmHg 75%
    04:00 +12°C° 0 mm 2 m/S 723 mmHg 75%
    05:00 +12°C° 0 mm 2 m/S 723 mmHg 75%
    06:00 +12°C° 0 mm 2 m/S 723 mmHg 75%
    07:00 +12°C° 0 mm 2 m/S 723 mmHg 75%
    08:00 +14°C° 0 mm 2 m/S 723 mmHg 69%
    09:00 +16°C° 0 mm 3 m/S 723 mmHg 63%
    10:00 +18°C° 0 mm 3 m/S 723 mmHg 58%
    11:00 +18°C° 0,1 mm 4 m/S 723 mmHg 60%
    12:00 +18°C° 0,1 mm 4 m/S 723 mmHg 63%
    13:00 +18°C° 0,1 mm 4 m/S 723 mmHg 66%
    14:00 +17°C° 0,3 mm 4 m/S 723 mmHg 72%
    15:00 +16°C° 0,3 mm 3 m/S 724 mmHg 79%
    16:00 +14°C° 0,3 mm 3 m/S 724 mmHg 86%
    17:00 +13°C° 0,5 mm 3 m/S 724 mmHg 89%
    18:00 +14°C° 0,5 mm 2 m/S 724 mmHg 91%
    19:00 +14°C° 0,5 mm 2 m/S 725 mmHg 93%
    20:00 +13°C° 0,5 mm 2 m/S 725 mmHg 93%
    21:00 +13°C° 0,5 mm 2 m/S 725 mmHg 93%
    22:00 +13°C° 0,5 mm 2 m/S 725 mmHg 93%
    23:00 +12°C° 0,6 mm 2 m/S 725 mmHg 92%

    22 Oktober, Sonntag

    Zeit Temperatur Niederschläge Wind Luftdruck Luftfeuchtigkeit
    00:00 +12°C° 0,6 mm 2 m/S 725 mmHg 92%
    01:00 +10°C° 0,6 mm 3 m/S 725 mmHg 92%
    02:00 +10°C° 0,4 mm 3 m/S 725 mmHg 92%
    03:00 +10°C° 0,4 mm 3 m/S 725 mmHg 91%
    04:00 +9°C° 0,4 mm 3 m/S 725 mmHg 91%
    05:00 +9°C° 0,2 mm 3 m/S 726 mmHg 91%
    06:00 +8°C° 0,2 mm 3 m/S 726 mmHg 91%
    07:00 +8°C° 0,2 mm 2 m/S 726 mmHg 92%
    08:00 +8°C° 0,1 mm 3 m/S 726 mmHg 88%
    09:00 +9°C° 0,1 mm 3 m/S 726 mmHg 84%
    10:00 +8°C° 0,1 mm 4 m/S 726 mmHg 79%
    11:00 +10°C° 0,2 mm 4 m/S 727 mmHg 77%
    12:00 +10°C° 0,2 mm 4 m/S 727 mmHg 74%
    13:00 +10°C° 0,2 mm 4 m/S 727 mmHg 71%
    14:00 +10°C° 0,1 mm 4 m/S 727 mmHg 71%
    15:00 +10°C° 0,1 mm 3 m/S 727 mmHg 71%
    16:00 +10°C° 0,1 mm 3 m/S 727 mmHg 71%
    17:00 +9°C° 0 mm 3 m/S 728 mmHg 75%
    18:00 +8°C° 0 mm 3 m/S 728 mmHg 79%
    19:00 +7°C° 0 mm 2 m/S 728 mmHg 83%
    20:00 +5°C° 0 mm 3 m/S 729 mmHg 84%
    21:00 +5°C° 0 mm 3 m/S 729 mmHg 85%
    22:00 +4°C° 0 mm 3 m/S 729 mmHg 85%
    23:00 +4°C° 0 mm 3 m/S 729 mmHg 86%
    Mehr zeigen